Regional Weather Roundup
Issued by NWS

Home | Current Version | Previous Version | Graphics & Text | Print | Product List | Glossary On
Versions: 1 2 3 4 5 6 7 8 9 10 11 12 13 14 15 16 17 18 19 20 21 22 23 24 25 26 27 28 29 30 31 32 33 34 35 36 37 38 39 40 41 42 43 44 45 46 47 48 49 50
000
ASUS43 KIND 050459
RWRIN

WEATHER ROUNDUP FOR INDIANA
NATIONAL WEATHER SERVICE INDIANAPOLIS IN
100 AM EDT WED AUG 05 2015

NOTE: "FAIR" INDICATES FEW OR NO CLOUDS BELOW 12,000 FEET WITH NO
SIGNIFICANT WEATHER AND/OR OBSTRUCTIONS TO VISIBILITY.

* - STATION DOES NOT REPORT WEATHER SUCH AS PRECIPITATION OR FOG.

+ - STATION NOT QUALITY CONTROLLED BY THE NATIONAL WEATHER SERVICE.
    USE DATA WITH CAUTION...ESPECIALLY DEWPOINT AND RELATIVE
    HUMIDITY OBSERVATIONS.

INZ001>003-010>013-019-020-050600-
NORTHWEST INDIANA

CITY           SKY/WX    TMP DP  RH WIND       PRES   REMARKS
KNOX *+        CLEAR     59  59 100 CALM      30.04R
MONTICELLO +   CLEAR     62  60  94 CALM      30.03S

$$

LMZ046-743>745-050600-
SOUTHERN LAKE MICHIGAN

STATION/POSITION TIME  TEMP    WIND        PRES    WAVE
                       AIR SEA DIR/SP/G            HT
                 (UTC) (F)     (DEG/KT/KT) (MB)    (FT)
BURNS HARBOR     0400   71      90/  7/  8 1017.6R
MICHIGAN CITY    0400   69     120/  5/  5   N/A
5NW MICH CITY    0400   72 74  150/  4/  6   N/A     1

$$

INZ004-005-014>016-021>024-050600-
NORTH CENTRAL INDIANA

CITY           SKY/WX    TMP DP  RH WIND       PRES   REMARKS
GOSHEN         LGT RAIN  63  60  90 CALM      30.04S
SOUTH BEND     PTCLDY    64  58  80 CALM      30.05R
WARSAW +       CLEAR     61  59  94 CALM      30.05R

$$

INZ006>009-017-018-025>027-050600-
NORTHEAST INDIANA

CITY           SKY/WX    TMP DP  RH WIND       PRES   REMARKS
ANGOLA *+      MOCLDY    63  59  88 CALM      30.04S
FORT WAYNE     PTCLDY    65  60  84 NW3       30.04R

$$

INZ028-029-035-036-043>045-051>053-050600-
WEST CENTRAL INDIANA

CITY           SKY/WX    TMP DP  RH WIND       PRES   REMARKS
CRAWFORDSVL +  MOCLDY    62  62 100 S3          N/A
GREENCASTLE +  CLOUDY    68  61  77 N3        30.05R
LAFAYETTE      PTCLDY    62  60  93 CALM      30.04R
TERRE HAUTE    CLOUDY    68  65  90 CALM      30.03R

$$

INZ030>032-037>040-046>048-054>057-064-065-050600-
CENTRAL INDIANA

CITY           SKY/WX    TMP DP  RH WIND       PRES   REMARKS
GREENWOOD *+   CLOUDY    66  63  88 CALM      30.04R
INDIANAPOLIS   CLOUDY    70  61  73 NW6       30.03R
-EAGLE CREEK   CLOUDY    70  62  76 MISG      30.03R
KOKOMO *+      CLEAR     64  57  77 CALM      30.05R
MT COMFORT *+  CLOUDY    64 N/A N/A N3        30.04S
SHELBYVILLE    CLOUDY    69  64  84 N3        30.02S

$$

INZ033-034-041-042-049-050-058-059-050600-
EAST CENTRAL INDIANA

CITY           SKY/WX    TMP DP  RH WIND       PRES   REMARKS
MUNCIE         PTCLDY    61  60  97 CALM      30.04S

$$

INZ060-061-067>069-081>083-085>088-050600-
SOUTHWEST INDIANA

CITY           SKY/WX    TMP DP  RH WIND       PRES   REMARKS
EVANSVILLE     MOCLDY    71  69  93 CALM      30.03R FOG
HUNTINGBURG *+ CLOUDY    70  66  88 CALM      30.03S

$$

INZ062-063-066-070>080-084-089>092-050600-
SOUTH CENTRAL AND SOUTHEAST INDIANA

CITY           SKY/WX    TMP DP  RH WIND       PRES   REMARKS
BLOOMINGTON    CLOUDY    68  66  93 CALM      30.04R
MADISON *+     CLOUDY    70  68  94 CALM      30.04R
SEYMOUR +      CLOUDY    72  70  94 CALM      30.02R

$$




USA.gov is the U.S. government's official web portal to all federal, state and local government web resources and services.